Weather History for Fairmont, MN

Change the Weather History Date:

Saturday, January 4, 2014

  Actual Average Record
Temperature  
Mean Temperature 18 °F -  
Max Temperature 35 °F 21 °F 48 °F (2003)
Min Temperature 0 °F 3 °F -19 °F (1969)
Degree Days  
Heating Degree Days 48    
Moisture  
Dew Point 7 °F    
Average Humidity 75    
Maximum Humidity 86    
Minimum Humidity 62    
Precipitation  
Precipitation 0.00 in - - ()
Sea Level Pressure  
Sea Level Pressure 29.91 in    
Wind  
Wind Speed 20 mph (NW)    
Max Wind Speed 34 mph    
Max Gust Speed 44 mph    
Visibility 10 miles    
Events      
Averages and records for this station are not official NWS values.
T = Trace of Precipitation, MM = Missing Value Source: NWS Daily Summary

Daily Weather History Graph

Daily Weather History Graph

Search for Another Location

Airport:

Trip Planner

Search our weather history database for the weather conditions in past years. The results will help you decide how hot, cold, wet, or windy it might be!

Date:

Astronomy

Jan. 04, 2014 Rise Set
Actual Time 7:51 AM CST 4:54 PM CST
Civil Twilight 7:18 AM CST 5:26 PM CST
Nautical Twilight 6:42 AM CST 6:02 PM CST
Astronomical Twilight 6:07 AM CST 6:37 PM CST
Moon 9:49 AM CST (1/4) 9:23 PM CST (1/4)
Length of Visible Light 10h 08m
Length of Day
9h 03m
Waxing Crescent, 15% of the Moon is Illuminated
Jan 4
Waxing Crescent
Jan 7
First Quarter
Jan 15
Full
Jan 23
Last Quarter
Jan 30
New

Hourly Weather History & Observations

Time (CST) Temp. Windchill Dew Point Humidity Pressure Visibility Wind Dir Wind Speed Gust Speed Precip Events Conditions
12:15 AM 30.2 °F 19.8 °F 26.6 °F 86% 29.47 in 10.0 mi SW 13.8 mph 17.3 mph N/A   Mostly Cloudy
12:35 AM 32.0 °F 22.1 °F 26.6 °F 80% 29.46 in 10.0 mi SW 13.8 mph - N/A   Overcast
12:55 AM 33.8 °F 23.9 °F 28.4 °F 81% 29.47 in 10.0 mi SW 15.0 mph - N/A   Overcast
1:15 AM 33.8 °F 24.3 °F 28.4 °F 81% 29.47 in 10.0 mi WSW 13.8 mph - N/A   Overcast
1:35 AM 33.8 °F 24.8 °F 28.4 °F 81% 29.48 in 10.0 mi SW 12.7 mph - N/A   Overcast
1:55 AM 33.8 °F 24.3 °F 28.4 °F 81% 29.49 in 10.0 mi WSW 13.8 mph - N/A   Overcast
2:15 AM 35.6 °F 26.6 °F 30.2 °F 81% 29.49 in 10.0 mi West 13.8 mph - N/A   Overcast
2:35 AM 35.6 °F 26.6 °F 30.2 °F 81% 29.50 in 10.0 mi West 13.8 mph - N/A   Mostly Cloudy
2:55 AM 35.6 °F 26.6 °F 30.2 °F 81% 29.51 in 10.0 mi WSW 13.8 mph - N/A   Mostly Cloudy
3:15 AM 35.6 °F 28.0 °F 30.2 °F 81% 29.52 in 10.0 mi West 10.4 mph - N/A   Mostly Cloudy
3:35 AM 33.8 °F 24.8 °F 28.4 °F 81% 29.54 in 10.0 mi West 12.7 mph - N/A   Scattered Clouds
3:55 AM 33.8 °F 20.1 °F 28.4 °F 81% 29.59 in 10.0 mi NW 29.9 mph 35.7 mph N/A   Mostly Cloudy
4:15 AM 26.6 °F 11.1 °F 19.4 °F 74% 29.61 in 10.0 mi NW 26.5 mph 29.9 mph N/A   Overcast
4:35 AM 21.2 °F 4.5 °F 15.8 °F 80% 29.63 in 10.0 mi NW 24.2 mph 36.8 mph N/A   Overcast
4:55 AM 19.4 °F 2.1 °F 12.2 °F 74% 29.65 in 10.0 mi NW 24.2 mph 39.1 mph N/A   Overcast
5:15 AM 19.4 °F 0.8 °F 15.8 °F 86% 29.67 in 8.0 mi NW 28.8 mph 36.8 mph N/A   Overcast
5:35 AM 17.6 °F -0.6 °F 12.2 °F 79% 29.68 in 8.0 mi NW 25.3 mph 34.5 mph N/A   Overcast
5:55 AM - - - N/A% 29.69 in 10.0 mi NW 34.5 mph 42.6 mph N/A   Overcast
6:15 AM 15.8 °F -5.2 °F 8.6 °F 73% 29.73 in 10.0 mi NW 33.4 mph 41.4 mph N/A   Overcast
6:35 AM 14.0 °F -7.1 °F 6.8 °F 73% 29.77 in 10.0 mi NW 31.1 mph 43.7 mph N/A   Overcast
6:55 AM 12.2 °F -7.5 °F 3.2 °F 67% 29.79 in 8.0 mi NW 24.2 mph 38.0 mph N/A   Overcast
7:15 AM 10.4 °F -11.4 °F 3.2 °F 73% 29.78 in 10.0 mi NW 28.8 mph 39.1 mph N/A   Overcast
7:35 AM 10.4 °F -11.4 °F 5.0 °F 79% 29.80 in 10.0 mi NNW 28.8 mph 33.4 mph N/A   Overcast
7:55 AM 10.4 °F -11.0 °F 6.8 °F 85% 29.83 in 10.0 mi NW 27.6 mph 33.4 mph N/A   Overcast
8:15 AM 12.2 °F -9.6 °F 6.8 °F 79% 29.83 in 4.0 mi NNW 31.1 mph 35.7 mph N/A   Overcast
8:35 AM 10.4 °F -12.3 °F 5.0 °F 79% 29.86 in 7.0 mi NW 32.2 mph 40.3 mph N/A   Overcast
8:55 AM 10.4 °F -12.0 °F 5.0 °F 79% 29.85 in 10.0 mi NNW 31.1 mph 40.3 mph N/A   Mostly Cloudy
9:15 AM 10.4 °F -11.0 °F 3.2 °F 73% 29.87 in 10.0 mi NNW 27.6 mph 36.8 mph N/A   Mostly Cloudy
9:35 AM 10.4 °F -10.3 °F 5.0 °F 79% 29.90 in 10.0 mi NW 25.3 mph 32.2 mph N/A   Mostly Cloudy
9:55 AM 10.4 °F -8.6 °F 5.0 °F 79% 29.94 in 10.0 mi NW 20.7 mph 29.9 mph N/A   Mostly Cloudy
10:15 AM 10.4 °F -9.5 °F 3.2 °F 73% 29.94 in 10.0 mi NNW 23.0 mph 31.1 mph N/A   Mostly Cloudy
10:35 AM 10.4 °F -9.5 °F 5.0 °F 79% 29.94 in 10.0 mi NW 23.0 mph 29.9 mph N/A   Partly Cloudy
10:55 AM 12.2 °F -7.5 °F 6.8 °F 79% 29.94 in 10.0 mi NNW 24.2 mph 29.9 mph N/A   Partly Cloudy
11:15 AM 12.2 °F -8.2 °F 6.8 °F 79% 29.96 in 10.0 mi NW 26.5 mph 33.4 mph N/A   Scattered Clouds
11:35 AM 12.2 °F -8.2 °F 6.8 °F 79% 29.95 in 10.0 mi NW 26.5 mph 29.9 mph N/A   Partly Cloudy
11:55 AM 12.2 °F -6.3 °F 5.0 °F 73% 29.94 in 10.0 mi NNW 20.7 mph 31.1 mph N/A   Clear
12:15 PM 12.2 °F -7.5 °F 6.8 °F 79% 29.94 in 10.0 mi NNW 24.2 mph 29.9 mph N/A   Clear
12:35 PM 14.0 °F -5.5 °F 5.0 °F 67% 29.94 in 10.0 mi NNW 25.3 mph 32.2 mph N/A   Clear
12:55 PM 12.2 °F -6.3 °F 6.8 °F 79% 29.96 in 10.0 mi NW 20.7 mph 27.6 mph N/A   Clear
1:15 PM 12.2 °F -8.2 °F 5.0 °F 73% 29.97 in 10.0 mi NW 26.5 mph 29.9 mph N/A   Mostly Cloudy
1:35 PM 12.2 °F -8.2 °F 3.2 °F 67% 29.98 in 10.0 mi NW 26.5 mph 31.1 mph N/A   Mostly Cloudy
1:55 PM 10.4 °F -9.9 °F 3.2 °F 73% 29.99 in 10.0 mi NW 24.2 mph 29.9 mph N/A   Partly Cloudy
2:15 PM 12.2 °F -8.6 °F 3.2 °F 67% 30.00 in 10.0 mi NNW 27.6 mph 33.4 mph N/A   Clear
2:35 PM 12.2 °F -8.2 °F 3.2 °F 67% 29.99 in 10.0 mi NNW 26.5 mph 34.5 mph N/A   Clear
2:55 PM 12.2 °F -8.6 °F 3.2 °F 67% 30.01 in 10.0 mi NNW 27.6 mph 33.4 mph N/A   Clear
3:15 PM 10.4 °F -9.5 °F 1.4 °F 67% 30.03 in 10.0 mi NW 23.0 mph 32.2 mph N/A   Clear
3:35 PM 10.4 °F -9.1 °F 1.4 °F 67% 30.07 in 10.0 mi NW 21.9 mph - N/A   Clear
3:55 PM 10.4 °F -11.0 °F -0.4 °F 62% 30.07 in 10.0 mi NW 27.6 mph 34.5 mph N/A   Clear
4:15 PM 8.6 °F -12.3 °F -0.4 °F 67% 30.08 in 10.0 mi NW 24.2 mph 29.9 mph N/A   Clear
4:35 PM 8.6 °F -11.0 °F -2.2 °F 62% 30.08 in 10.0 mi NW 20.7 mph 29.9 mph N/A   Clear
4:55 PM 6.8 °F -13.8 °F -2.2 °F 67% 30.08 in 10.0 mi NW 21.9 mph - N/A   Clear
5:15 PM 6.8 °F -12.9 °F -2.2 °F 67% 30.09 in 10.0 mi NW 19.6 mph 24.2 mph N/A   Clear
5:35 PM 6.8 °F -12.4 °F -2.2 °F 67% 30.12 in 10.0 mi NW 18.4 mph - N/A   Clear
5:55 PM 6.8 °F -11.3 °F -2.2 °F 67% 30.13 in 10.0 mi NNW 16.1 mph 23.0 mph N/A   Clear
6:15 PM 5.0 °F -13.0 °F -2.2 °F 72% 30.14 in 10.0 mi NNW 15.0 mph - N/A   Clear
6:35 PM 5.0 °F -14.2 °F -2.2 °F 72% 30.15 in 10.0 mi NNW 17.3 mph - N/A   Clear
6:55 PM 3.2 °F -14.6 °F -2.2 °F 78% 30.14 in 10.0 mi NNW 13.8 mph - N/A   Clear
7:15 PM 3.2 °F -17.6 °F -2.2 °F 78% 30.14 in 10.0 mi NNW 19.6 mph 23.0 mph N/A   Clear
7:35 PM 3.2 °F -16.5 °F -2.2 °F 78% 30.16 in 10.0 mi NNW 17.3 mph - N/A   Clear
7:55 PM 3.2 °F -17.1 °F -2.2 °F 78% 30.17 in 10.0 mi NNW 18.4 mph 23.0 mph N/A   Clear
8:15 PM 3.2 °F -17.1 °F -2.2 °F 78% 30.17 in 10.0 mi NNW 18.4 mph 26.5 mph N/A   Clear
8:35 PM 3.2 °F -16.5 °F -2.2 °F 78% 30.18 in 10.0 mi NNW 17.3 mph 23.0 mph N/A   Clear
8:55 PM 3.2 °F -16.5 °F -2.2 °F 78% 30.19 in 10.0 mi NNW 17.3 mph - N/A   Clear
9:15 PM 1.4 °F -16.9 °F -4.0 °F 78% 30.20 in 10.0 mi NNW 13.8 mph - N/A   Clear
9:35 PM 1.4 °F -18.2 °F -2.2 °F 85% 30.21 in 10.0 mi NW 16.1 mph - N/A   Clear
9:55 PM 1.4 °F -18.2 °F -4.0 °F 78% 30.22 in 10.0 mi NW 16.1 mph - N/A   Clear
10:15 PM 1.4 °F -18.8 °F -5.8 °F 72% 30.22 in 10.0 mi NNW 17.3 mph - N/A   Clear
10:35 PM 1.4 °F -17.6 °F -5.8 °F 72% 30.22 in 10.0 mi NW 15.0 mph - N/A   Clear
10:55 PM -0.4 °F -19.2 °F -5.8 °F 78% 30.23 in 10.0 mi NNW 13.8 mph 20.7 mph N/A   Partly Cloudy
11:15 PM -0.4 °F -19.2 °F -7.6 °F 72% 30.23 in 10.0 mi NNW 13.8 mph - N/A   Partly Cloudy
11:35 PM -0.4 °F -21.7 °F -7.6 °F 72% 30.22 in 10.0 mi NNW 18.4 mph 24.2 mph N/A   Clear
11:55 PM -0.4 °F -21.2 °F -7.6 °F 72% 30.23 in 10.0 mi NNW 17.3 mph 24.2 mph N/A   Clear